This is the latest recevied weather packets stored in our database for station/object KG7MRB. If no packets are shown the sender has not sent any weather packets the latest 10 day(s).
| Time | Temp. | Humidity | Pressure | Rain* | Wind** | Luminosity | Snow |
|---|---|---|---|---|---|---|---|
| 1778122785 | 12.78° C | 86% | 1037.9 hPa | 0 mm | - | 4 W/m² | - |
| 1778122482 | 12.78° C | 86% | 1038.1 hPa | 0 mm | - | 6 W/m² | - |
| 1778122180 | 12.78° C | 85% | 1038.1 hPa | 0 mm | - | 6 W/m² | - |
| 1778121877 | 12.78° C | 85% | 1038 hPa | 0 mm | - | 6 W/m² | - |
| 1778121572 | 12.78° C | 85% | 1038 hPa | 0 mm | - | 6 W/m² | - |
| 1778121269 | 12.78° C | 85% | 1038.1 hPa | 0 mm | - | 7 W/m² | - |
| 1778120966 | 12.78° C | 85% | 1038 hPa | 0 mm | - | 8 W/m² | - |
| 1778120664 | 12.78° C | 85% | 1037.9 hPa | 0 mm | - | 10 W/m² | - |
| 1778120359 | 12.78° C | 85% | 1038 hPa | 0 mm | - | 11 W/m² | - |
| 1778120054 | 12.78° C | 85% | 1038.1 hPa | 0 mm | - | 11 W/m² | - |
| 1778119753 | 13.33° C | 85% | 1037.9 hPa | 0 mm | - | 13 W/m² | - |
| 1778119449 | 13.33° C | 85% | 1037.9 hPa | 0 mm | - | 12 W/m² | - |
| 1778119146 | 13.33° C | 85% | 1038 hPa | 0 mm | - | 14 W/m² | - |
| 1778118844 | 13.33° C | 85% | 1037.9 hPa | 0 mm | - | 15 W/m² | - |
| 1778118541 | 13.33° C | 85% | 1038.2 hPa | 0 mm | - | 17 W/m² | - |
| 1778118236 | 13.33° C | 85% | 1037.8 hPa | 0 mm | - | 22 W/m² | - |
| 1778117933 | 13.33° C | 85% | 1038 hPa | 0 mm | - | 28 W/m² | - |
| 1778117625 | 13.33° C | 85% | 1037.9 hPa | 0 mm | - | 33 W/m² | - |
| 1778117322 | 13.33° C | 85% | 1037.8 hPa | 0 mm | - | 37 W/m² | - |
| 1778117017 | 13.33° C | 85% | 1037.7 hPa | 0 mm | - | 42 W/m² | - |
| 1778116715 | 13.33° C | 85% | 1037.9 hPa | 0 mm | - | 54 W/m² | - |
| 1778116412 | 13.33° C | 85% | 1037.9 hPa | 0 mm | - | 67 W/m² | - |
| 1778116106 | 13.33° C | 85% | 1037.9 hPa | 0 mm | - | 78 W/m² | - |
| 1778115802 | 13.33° C | 85% | 1037.8 hPa | 0 mm | - | 88 W/m² | - |
| 1778115500 | 13.33° C | 85% | 1037.8 hPa | 0 mm | - | 96 W/m² | - |
* Rain latest hour (hover to see other rain measurements)
** Current wind speed in m/s (hover to see current wind gust speed)